| time (UTC) | temp F | wind direction | speed MPH | gust MPH | rain 1hr in | rain 24hr in | rain mn in | humidity % | barometer mb |
| 20260506211520 | 62 | 111 | 0.0 | 3.0 | 0.00 | 0.13 | 0.13 | 76 | 1012.9 |
| 20260506210023 | 62 | 110 | 0.0 | 3.0 | 0.00 | 0.13 | 0.13 | 73 | 1013.0 |
| 20260506204520 | 63 | 297 | 0.0 | 4.0 | 0.00 | 0.13 | 0.13 | 73 | 1012.9 |
| 20260506203021 | 63 | 293 | 0.0 | 1.0 | 0.00 | 0.13 | 0.13 | 74 | 1013.0 |
| 20260506201517 | 62 | 77 | 0.0 | 1.0 | 0.00 | 0.13 | 0.13 | 77 | 1013.4 |
| 20260506200020 | 60 | 113 | 0.0 | 2.0 | 0.00 | 0.13 | 0.13 | 77 | 1013.4 |
| 20260506194516 | 60 | 149 | 0.0 | 2.0 | 0.00 | 0.13 | 0.13 | 78 | 1013.7 |
| 20260506193016 | 59 | 111 | 0.0 | 1.0 | 0.00 | 0.13 | 0.13 | 78 | 1014.3 |
| 20260506191515 | 58 | 128 | 0.0 | 1.0 | 0.00 | 0.13 | 0.13 | 79 | 1014.0 |
| 20260506190022 | 57 | 120 | 0.0 | 1.0 | 0.00 | 0.13 | 0.13 | 80 | 1014.1 |
| 20260506184517 | 57 | 100 | 0.0 | 2.0 | 0.00 | 0.13 | 0.13 | 80 | 1014.1 |
| 20260506183015 | 58 | 121 | 0.0 | 1.0 | 0.00 | 0.13 | 0.13 | 80 | 1013.4 |
| 20260506181516 | 58 | 70 | 0.0 | 4.0 | 0.00 | 0.13 | 0.13 | 82 | 1012.5 |
| 20260506180012 | 57 | 303 | 0.0 | 3.0 | 0.00 | 0.13 | 0.13 | 82 | 1012.9 |
| 20260506174510 | 55 | 83 | 0.0 | 2.0 | 0.00 | 0.13 | 0.13 | 82 | 1013.3 |
| 20260506173011 | 55 | 125 | 0.0 | 4.0 | 0.00 | 0.13 | 0.13 | 82 | 1013.3 |
| 20260506171509 | 54 | 104 | 0.0 | 3.0 | 0.00 | 0.13 | 0.13 | 82 | 1013.3 |
| 20260506170011 | 54 | 93 | 0.0 | 1.0 | 0.00 | 0.13 | 0.13 | 80 | 1013.4 |
| 20260506164509 | 54 | 273 | 0.0 | 1.0 | 0.00 | 0.13 | 0.13 | 80 | 1013.5 |
| 20260506163009 | 53 | 97 | 0.0 | 2.0 | 0.00 | 0.13 | 0.13 | 81 | 1013.8 |
| 20260506161507 | 54 | 105 | 0.0 | 7.0 | 0.01 | 0.13 | 0.13 | 81 | 1013.9 |
| 20260506160007 | 54 | 291 | 0.0 | 1.0 | 0.12 | 0.13 | 0.13 | 79 | 1013.2 |
| 20260506154505 | 54 | 198 | 0.0 | 1.0 | 0.13 | 0.13 | 0.13 | 79 | 1012.8 |
| 20260506153009 | 53 | 355 | 0.0 | 3.0 | 0.13 | 0.13 | 0.13 | 81 | 1013.6 |
| 20260506151503 | 53 | 101 | 0.0 | 0.0 | 0.12 | 0.12 | 0.12 | 83 | 1014.2 |
| 20260506150103 | 54 | 63 | 0.0 | 1.0 | 0.01 | 0.01 | 0.01 | 82 | 1015.2 |
| 20260506144607 | 54 | 341 | 0.0 | 1.0 | 0.00 | 0.00 | 0.00 | 82 | 1014.4 |
| 20260506143057 | 54 | 98 | 0.0 | 3.0 | 0.00 | 0.00 | 0.00 | 82 | 1013.1 |
| 20260506141556 | 54 | 90 | 0.0 | 3.0 | 0.00 | 0.00 | 0.00 | 81 | 1013.8 |
| 20260506140054 | 54 | 113 | 0.0 | 1.0 | 0.00 | 0.00 | 0.00 | 82 | 1013.6 |
| 20260506134554 | 53 | 143 | 0.0 | 3.0 | 0.00 | 0.00 | 0.00 | 82 | 1013.1 |
| 20260506133053 | 53 | 8 | 0.0 | 2.0 | 0.00 | 0.00 | 0.00 | 81 | 1012.5 |
| 20260506131648 | 53 | 104 | 0.0 | 1.0 | 0.00 | 0.00 | 0.00 | 81 | 1012.6 |
| 20260506130046 | 53 | 142 | 0.0 | 1.0 | 0.00 | 0.00 | 0.00 | 81 | 1012.3 |
| 20260506124542 | 54 | 194 | 0.0 | 1.0 | 0.00 | 0.00 | 0.00 | 81 | 1012.2 |
| 20260506123039 | 0 | 0.0 | 0.0 | 0.00 | 0.00 | 0.00 | 1012.0 | ||
| 20260506121534 | 0 | 0.0 | 0.0 | 0.00 | 0.00 | 0.00 | 1011.8 | ||
| 20260506120032 | 0 | 0.0 | 0.0 | 0.00 | 0.00 | 0.00 | 1011.7 | ||
| 20260506114527 | 0 | 0.0 | 0.0 | 0.00 | 0.00 | 0.00 | 1011.4 | ||
| 20260506113022 | 0 | 0.0 | 0.0 | 0.00 | 0.00 | 0.00 | 1011.3 | ||
| 20260506111516 | 0 | 0.0 | 0.0 | 0.00 | 0.00 | 0.00 | 1010.8 | ||
| 20260506110014 | 0 | 0.0 | 0.0 | 0.00 | 0.00 | 0.00 | 1010.6 | ||
| 20260506104508 | 0 | 0.0 | 0.0 | 0.00 | 0.00 | 0.00 | 1010.4 | ||
| 20260506103003 | 0 | 0.0 | 0.0 | 0.00 | 0.00 | 0.00 | 1010.1 | ||
| 20260506101559 | 0 | 0.0 | 0.0 | 0.00 | 0.00 | 0.00 | 1010.0 | ||
| 20260506094608 | 0 | 0.0 | 0.0 | 0.00 | 0.00 | 0.00 | 1009.4 | ||
| 20260506093047 | 0 | 0.0 | 0.0 | 0.00 | 0.00 | 0.00 | 1009.4 | ||
| 20260506091545 | 59 | 105 | 0.0 | 2.0 | 0.00 | 0.00 | 0.00 | 76 | 1009.2 |
| 20260506090042 | 59 | 301 | 0.0 | 0.0 | 0.00 | 0.00 | 0.00 | 77 | 1009.2 |
| 20260506084540 | 59 | 352 | 0.0 | 1.0 | 0.00 | 0.00 | 0.00 | 77 | 1009.1 |
| 20260506083041 | 59 | 96 | 0.0 | 1.0 | 0.00 | 0.00 | 0.00 | 77 | 1008.7 |
| 20260506081537 | 59 | 98 | 0.0 | 1.0 | 0.00 | 0.00 | 0.00 | 77 | 1008.9 |
| 20260506073033 | 60 | 20 | 0.0 | 2.0 | 0.00 | 0.00 | 0.00 | 77 | 1008.3 |
| 20260506071530 | 60 | 103 | 0.0 | 2.0 | 0.00 | 0.00 | 0.00 | 78 | 1008.5 |
| 20260506061527 | 61 | 107 | 0.0 | 1.0 | 0.00 | 0.00 | 0.00 | 78 | 1008.3 |
| 20260506044514 | 63 | 57 | 0.0 | 2.0 | 0.00 | 0.00 | 0.00 | 76 | 1008.2 |
| 20260506043009 | 64 | 123 | 0.0 | 1.0 | 0.00 | 0.00 | 0.00 | 76 | 1008.2 |
| 20260506041506 | 65 | 284 | 0.0 | 2.0 | 0.00 | 0.00 | 0.00 | 76 | 1008.2 |
| 20260506040006 | 65 | 155 | 0.0 | 0.0 | 0.00 | 0.00 | 0.00 | 76 | 1008.1 |
| 20260506034605 | 66 | 289 | 0.0 | 1.0 | 0.00 | 0.00 | 0.00 | 75 | 1007.5 |
| 20260506034502 | 66 | 315 | 0.0 | 1.0 | 0.00 | 0.00 | 0.00 | 75 | 1007.5 |
| 20260506033119 | 66 | 120 | 0.0 | 2.0 | 0.00 | 0.00 | 0.00 | 75 | 1007.2 |
| 20260506031554 | 67 | 143 | 0.0 | 1.0 | 0.00 | 0.00 | 0.00 | 75 | 1007.0 |
| 20260506030100 | 68 | 320 | 0.0 | 1.0 | 0.00 | 0.00 | 0.00 | 74 | 1006.9 |
| 20260506024603 | 68 | 324 | 0.0 | 1.0 | 0.00 | 0.00 | 0.00 | 73 | 1006.6 |
| 20260506023046 | 68 | 309 | 0.0 | 3.0 | 0.00 | 0.00 | 0.00 | 72 | 1006.3 |
| 20260506021552 | 69 | 290 | 0.0 | 1.0 | 0.00 | 0.00 | 0.00 | 71 | 1005.8 |
| 20260506020041 | 69 | 218 | 0.0 | 1.0 | 0.00 | 0.00 | 0.00 | 71 | 1005.6 |
| 20260506014537 | 70 | 346 | 0.0 | 1.0 | 0.00 | 0.00 | 0.00 | 71 | 1005.0 |
| 20260506013043 | 71 | 93 | 0.0 | 0.0 | 0.00 | 0.00 | 0.00 | 70 | 1004.8 |
| 20260506011559 | 72 | 129 | 0.0 | 0.0 | 0.00 | 0.00 | 0.00 | 70 | 1004.5 |
| 20260506010034 | 72 | 304 | 0.0 | 1.0 | 0.00 | 0.00 | 0.00 | 68 | 1004.7 |
| 20260506004541 | 73 | 188 | 0.0 | 0.0 | 0.00 | 0.00 | 0.00 | 67 | 1004.3 |
| 20260506003031 | 75 | 122 | 0.0 | 2.0 | 0.00 | 0.00 | 0.00 | 67 | 1003.9 |
| 20260506001532 | 76 | 301 | 0.0 | 1.0 | 0.00 | 0.00 | 0.00 | 65 | 1003.5 |
| 20260506000029 | 78 | 306 | 0.0 | 1.0 | 0.00 | 0.00 | 0.00 | 63 | 1003.5 |
| 20260505234530 | 79 | 290 | 0.0 | 3.0 | 0.00 | 0.00 | 0.00 | 64 | 1003.1 |
| 20260505233033 | 80 | 302 | 0.0 | 2.0 | 0.00 | 0.00 | 0.00 | 60 | 1002.9 |
| 20260505231536 | 82 | 295 | 0.0 | 1.0 | 0.00 | 0.00 | 0.00 | 59 | 1002.8 |
| 20260505230028 | 83 | 308 | 0.0 | 2.0 | 0.00 | 0.00 | 0.00 | 59 | 1002.8 |
| 20260505224525 | 84 | 304 | 0.0 | 1.0 | 0.00 | 0.00 | 0.00 | 54 | 1002.2 |
| 20260505223023 | 85 | 340 | 0.0 | 1.0 | 0.00 | 0.00 | 0.00 | 51 | 1002.3 |
| 20260505221522 | 88 | 121 | 0.0 | 1.0 | 0.00 | 0.00 | 0.00 | 51 | 1002.1 |
| 20260505220042 | 90 | 13 | 0.0 | 1.0 | 0.00 | 0.00 | 0.00 | 48 | 1001.8 |
| 20260505214528 | 91 | 105 | 0.0 | 2.0 | 0.00 | 0.00 | 0.00 | 46 | 1001.9 |
| 20260505213021 | 92 | 173 | 0.0 | 4.0 | 0.00 | 0.00 | 0.00 | 47 | 1001.9 |